Flag for U.S.A. Weather past 2 weeks in Wailuku, Hawaii, U.S.A.

Now
79 °F

Clear.


Feels Like: 82 °F
Forecast: 76 / 89 °F
Wind: 15 mph from Northeast

Location: Kahului Airport

Current Time: Jul 31, 2015 at 1:32:58 AM

Latest Report: Jul 31, 2015 at 12:54 AM


Visibility: 10 mi

Pressure: 30.00 "Hg

Humidity: 77%

Dew point: 71 °F

Location of WailukuLocation

Historic Weather in Wailuku — Graph

°F

Wailuku temperature yesterday

Maximum temperature yesterday: 91 °F (at 11:54 AM)
Minimum temperature yesterday: 73 °F (at 5:54 AM)
Average temperature yesterday: 82 °F

Past Weeks' High & Low Weather Summary

 TemperatureHumidityPressure
High93 °F (Jul 28, 12:07 PM)94% (Jul 16, 5:54 AM)30.07 "Hg (Jul 16, 5:54 AM)
Low70 °F (Jul 26, 5:54 AM)44% (Jul 27, 12:54 PM)29.88 "Hg (Jul 29, 4:54 PM)
Average81 °F68%29.97 "Hg
* Reported Jul 15 11:54 PM — Jul 30 11:54 PM, Wailuku, Weather by CustomWeather, © 2015

Note: Actual official high and low records may vary slightly from our data, if they occured in-between our weather recording intervals... More about our weather records

Advertising

Wailuku weather history for previous 24 hours

 ConditionsComfort  
Time TempWeatherWind HumidityBarometerVisibility
11:54 PM
Thu, Jul 30
79 °FClear.15 mph77%30.02 "Hg10 mi
10:54 PM79 °FClear.17 mph77%30.02 "Hg10 mi
9:54 PM80 °FClear.15 mph74%30.01 "Hg10 mi
8:54 PM80 °FPassing clouds.16 mph74%29.99 "Hg10 mi
7:54 PM80 °FPassing clouds.15 mph74%29.98 "Hg10 mi
6:54 PM81 °FScattered clouds.16 mph72%29.96 "Hg10 mi
5:54 PM86 °FScattered clouds.22 mph57%29.93 "Hg10 mi
4:54 PM87 °FScattered clouds.18 mph55%29.92 "Hg10 mi
3:54 PM89 °FScattered clouds.23 mph53%29.93 "Hg10 mi
2:54 PM90 °FScattered clouds.20 mph52%29.94 "Hg10 mi
1:54 PM89 °FScattered clouds.20 mph55%29.95 "Hg10 mi
12:54 PM90 °FScattered clouds.23 mph50%29.96 "Hg10 mi
11:54 AM91 °FScattered clouds.18 mph52%29.97 "Hg10 mi
10:54 AM87 °FScattered clouds.16 mph55%29.98 "Hg10 mi
9:54 AM88 °FScattered clouds.16 mph57%29.98 "Hg10 mi
8:54 AM84 °FScattered clouds.17 mph63%29.99 "Hg10 mi
7:54 AM83 °FPassing clouds.16 mph65%29.98 "Hg10 mi
6:54 AM79 °FPassing clouds.10 mph72%29.97 "Hg10 mi
6:31 AM75 °FSunny.6 mph69%29.95 "Hg10 mi
5:54 AM73 °FPassing clouds.3 mph74%29.96 "Hg10 mi
4:54 AM78 °FPassing clouds.10 mph76%29.95 "Hg10 mi
3:54 AM77 °FClear.7 mph82%29.94 "Hg10 mi
2:54 AM78 °FClear.15 mph79%29.94 "Hg10 mi
1:54 AM78 °FPassing clouds.10 mph79%29.96 "Hg10 mi
Weather by CustomWeather, © 2015

See weather overviewHow to use our weather pages